Waarnemingen

Advertentie
Mijn weer
Solenzara, Frankrijk (7765): temperatuur & dauwpunt: 09.10.2019 21:00:00 - 15.10.2019 21:00:00 (CEST)Solenzara, Frankrijk (7765): temperatuur 5cm: 09.10.2019 21:00:00 - 15.10.2019 21:00:00 (CEST)Solenzara, Frankrijk (7765): temperatuur -20cm: 09.10.2019 21:00:00 - 15.10.2019 21:00:00 (CEST)Solenzara, Frankrijk (7765): windsnelheid & windstoten: 09.10.2019 21:00:00 - 15.10.2019 21:00:00 (CEST)Solenzara, Frankrijk (7765): windrichting: 09.10.2019 21:00:00 - 15.10.2019 21:00:00 (CEST)Solenzara, Frankrijk (7765): luchtdruk: 09.10.2019 21:00:00 - 15.10.2019 21:00:00 (CEST)Solenzara, Frankrijk (7765): zicht: 09.10.2019 21:00:00 - 15.10.2019 21:00:00 (CEST)Solenzara, Frankrijk (7765): Zonneschijnduur: 09.10.2019 21:00:00 - 15.10.2019 21:00:00 (CEST)Solenzara, Frankrijk (7765): neerslag: 09.10.2019 21:00:00 - 15.10.2019 21:00:00 (CEST)
Datum & Tijd tt [°C] td [°C] tt 5cm [°C] tt -20cm [°C] ff [km/u] ff [kn] fx [km/u] fx [kn] dd ppp [hPa] vv [km] sd [min] rr [mm]
15.10.2019 21:00:00 20,2 6,2 17,7 22,0 23 12 51 27 W 1011,8 60 0 0,0
15.10.2019 20:00:00 21,3 8,2 19,6 22,0 22 12 67 36 NW 1011,8 60 0 0,0
15.10.2019 19:00:00 22,3 8,0 19,6 21,9 14 8 44 24 WNW 1010,7 60 0 0,0
15.10.2019 18:00:00 23,1 10,8 20,3 21,9 15 8 36 19 W 1010,3 58 55 0,0
15.10.2019 17:00:00 24,9 13,4 23,0 21,8 14 8 32 18 W 1010,7 48 60 0,0
15.10.2019 16:00:00 24,5 18,0 22,1 21,7 14 8 37 20 ZW 1010,9 53 30 0,0
15.10.2019 15:00:00 25,8 18,5 22,2 21,6 11 6 35 19 Z 1010,3 50 58 0,0
15.10.2019 14:00:00 22,5 18,3 20,7 21,5 17 9 39 21 ZZW 1011,5 17 24 0,6
15.10.2019 13:00:00 24,0 19,1 21,6 21,5 26 14 39 21 ZZO 1012,4 16 34 0,0
15.10.2019 12:00:00 22,7 18,7 23,0 21,4 14 8 21 12 Z 1013,2 20 43 0,0
15.10.2019 11:00:00 23,2 19,6 21,6 21,4 8 4 13 7 Z 1013,4 17 26 0,0
15.10.2019 10:00:00 21,0 17,8 20,0 21,4 4 2 14 7 W 1014,0 28 50 0,0
15.10.2019 09:00:00 19,1 16,9 17,0 21,5 8 4 20 11 W 1014,1 20 11 0,0
15.10.2019 08:00:00 18,0 16,3 17,1 21,5 10 5 19 10 W 1013,9 20 0 0,0
15.10.2019 07:00:00 18,4 16,7 17,6 21,6 11 6 22 12 W 1014,2 16 0 3,7
15.10.2019 06:00:00 19,6 18,4 18,6 21,6 6 3 25 14 WNW 1014,7 4,0 0 9,4
15.10.2019 05:00:00 19,5 17,8 18,4 21,7 9 5 23 12 WZW 1015,6 14 0 0,2
15.10.2019 04:00:00 19,4 17,5 18,5 21,7 5 3 15 8 WNW 1015,7 20 0 0,0
15.10.2019 03:00:00 19,5 17,8 18,0 21,7 7 4 14 8 W 1016,5 19 0 0,2
15.10.2019 02:00:00 19,3 18,0 17,9 21,7 7 4 13 7 W 1017,0 17 0 0,0
15.10.2019 01:00:00 19,6 18,3 18,1 21,7 7 4 10 6 W 1017,4 17 0 0,0
15.10.2019 00:00:00 19,7 18,4 18,6 21,7 6 3 11 6 W 1017,8 17 0 0,0
14.10.2019 23:00:00 20,4 19,1 18,8 21,7 6 3 12 7 ZW 1018,0 13 0 0,0
14.10.2019 22:00:00 20,8 19,5 19,5 21,7 5 3 12 7 ZW 1018,1 13 0 0,0
14.10.2019 21:00:00 21,3 20,1 20,1 21,7 6 3 14 8 ZW 1018,1 9 0 0,0
14.10.2019 20:00:00 21,5 20,7 19,8 21,7 11 6 17 9 Z 1018,2 7 0 0,0
14.10.2019 19:00:00 21,1 19,6 20,0 21,7 0 0 10 6 N 1017,9 17 0 0,0
14.10.2019 18:00:00 21,2 19,7 20,4 21,6 7 4 14 8 ZZW 1018,0 26 0 0,0
14.10.2019 17:00:00 22,0 20,6 21,4 21,6 10 5 16 8 ZZO 1018,2 10 0 0,0
14.10.2019 16:00:00 22,3 20,9 21,6 21,6 10 6 15 8 ZO 1018,4 10 0 0,0
14.10.2019 15:00:00 22,3 20,8 21,7 21,5 8 5 15 8 ZO 1018,8 9 0 0,0
14.10.2019 14:00:00 22,6 21,2 22,0 21,5 8 4 12 6 ZO 1019,3 8 0 0,0
14.10.2019 13:00:00 22,3 20,2 21,2 21,5 0 0 6 3 N 1020,0 13 0 0,0
14.10.2019 12:00:00 21,9 19,6 20,5 21,4 0 0 8 4 N 1020,5 11 0 0,8
14.10.2019 11:00:00 22,4 18,8 21,7 21,5 4 2 11 6 O 1020,5 19 7 0,0
14.10.2019 10:00:00 19,9 17,3 18,1 21,5 7 4 15 8 W 1020,6 20 0 0,0
14.10.2019 09:00:00 19,0 16,4 18,3 21,5 9 5 16 8 W 1020,5 20 0 0,0
14.10.2019 08:00:00 18,9 16,1 17,9 21,5 9 5 16 8 W 1020,0 27 0 0,0
14.10.2019 07:00:00 18,7 15,6 18,1 21,6 9 5 15 8 W 1020,1 29 0 0,0
14.10.2019 06:00:00 18,8 15,3 18,0 21,6 10 5 16 9 W 1020,2 33 0 0,0
14.10.2019 05:00:00 18,8 16,2 18,0 21,6 8 5 13 7 W 1020,3 20 0 0,0
14.10.2019 04:00:00 19,0 15,7 17,8 21,7 5 3 11 6 W 1020,5 30 0 0,0
14.10.2019 03:00:00 19,2 17,0 17,9 21,7 4 2 14 8 NW 1020,8 17 0 0,0
14.10.2019 02:00:00 19,0 15,5 17,7 21,8 7 4 14 7 W 1021,0 31 0 0,0
14.10.2019 01:00:00 19,1 15,6 17,9 21,8 10 6 18 10 W 1021,3 32 0 0,0
14.10.2019 00:00:00 19,1 15,6 17,3 21,8 9 5 14 8 WNW 1021,6 33 0 0,0
13.10.2019 23:00:00 19,1 15,8 17,7 21,9 7 4 16 9 W 1021,9 31 0 0,0
13.10.2019 22:00:00 19,4 16,8 18,2 21,8 8 4 15 8 WNW 1021,8 27 0 0,0
13.10.2019 21:00:00 19,7 17,3 18,0 21,8 6 3 14 8 WNW 1021,7 26 0 0,0
13.10.2019 20:00:00 19,8 17,8 18,3 21,8 5 3 9 5 W 1021,6 20 0 0,0
13.10.2019 19:00:00 21,1 19,4 19,8 21,7 3 1 6 3 Z 1021,5 17 0 0,0
13.10.2019 18:00:00 21,7 19,6 21,7 21,7 3 1 11 6 OZO 1021,4 19 0 0,0
13.10.2019 17:00:00 21,8 19,7 22,3 21,6 8 4 17 9 ZO 1021,4 19 0 0,0
13.10.2019 16:00:00 21,8 19,7 22,4 21,5 12 7 21 11 ZZO 1021,7 20 0 0,0
13.10.2019 15:00:00 22,3 20,0 23,7 21,4 14 7 22 12 ZZO 1021,9 15 0 0,0
13.10.2019 14:00:00 22,5 19,7 24,4 21,3 16 9 22 12 ZO 1022,3 24 13 0,0
13.10.2019 13:00:00 22,4 19,6 24,4 21,2 12 7 18 10 ZZO 1022,9 19 44 0,0
13.10.2019 12:00:00 22,4 18,2 22,3 21,2 8 5 13 7 O 1023,1 20 42 0,0
13.10.2019 11:00:00 22,5 17,8 20,9 21,2 7 4 13 7 O 1023,1 20 55 0,0
13.10.2019 10:00:00 19,9 14,0 17,8 21,2 6 3 14 8 WNW 1023,3 60 17 0,0
13.10.2019 09:00:00 17,8 12,7 16,6 21,3 9 5 16 9 W 1023,0 60 0 0,0
13.10.2019 08:00:00 17,3 12,4 16,0 21,4 11 6 20 11 W 1022,6 60 0 0,0
13.10.2019 07:00:00 17,2 12,7 16,2 21,4 9 5 17 9 W 1022,3 60 0 0,0
13.10.2019 06:00:00 16,7 12,4 15,5 21,5 12 6 19 10 W 1022,4 60 0 0,0
13.10.2019 05:00:00 16,4 12,7 14,8 21,6 9 5 19 10 W 1022,5 60 0 0,0
13.10.2019 04:00:00 16,3 13,0 14,7 21,7 9 5 19 11 W 1022,5 60 0 0,0
13.10.2019 03:00:00 16,7 13,4 15,2 21,7 10 5 18 10 W 1022,8 60 0 0,0
13.10.2019 02:00:00 16,8 13,7 15,5 21,8 9 5 16 8 W 1022,9 60 0 0,0
13.10.2019 01:00:00 17,5 14,0 16,3 21,8 8 5 16 8 W 1023,1 60 0 0,0
13.10.2019 00:00:00 17,7 14,6 16,6 21,8 9 5 16 9 W 1023,2 59 0 0,0
12.10.2019 23:00:00 18,3 15,4 17,5 21,8 10 5 16 9 W 1023,1 58 0 0,0
12.10.2019 22:00:00 18,9 16,5 17,7 21,8 7 4 12 6 W 1023,2 44 0 0,0
12.10.2019 21:00:00 20,0 17,6 19,5 21,8 6 3 14 8 WZW 1023,1 44 0 0,0
12.10.2019 20:00:00 20,8 18,6 19,9 21,8 9 5 18 10 ZZO 1023,0 36 0 0,0
12.10.2019 19:00:00 20,8 18,4 19,9 21,8 6 3 13 7 OZO 1022,7 20 0 0,0
12.10.2019 18:00:00 20,7 17,7 20,0 21,7 8 5 17 9 ZO 1022,6 46 0 0,0
12.10.2019 17:00:00 20,8 17,2 20,4 21,6 12 7 21 11 ZO 1022,5 53 0 0,0
12.10.2019 16:00:00 21,2 17,2 21,9 21,5 13 7 22 12 ZZO 1022,9 55 0 0,0
12.10.2019 15:00:00 21,8 17,2 23,6 21,3 15 8 23 12 ZZO 1022,7 20 31 0,0
12.10.2019 14:00:00 22,1 17,5 25,1 21,1 12 7 23 12 ZZO 1023,0 44 54 0,0
12.10.2019 13:00:00 22,2 16,9 26,0 21,0 12 7 20 11 ZO 1023,5 60 60 0,0
12.10.2019 12:00:00 21,9 16,4 24,6 20,9 11 6 18 10 OZO 1023,6 60 60 0,0
12.10.2019 11:00:00 21,7 16,0 22,5 20,9 6 3 11 6 O 1023,5 60 60 0,0
12.10.2019 10:00:00 21,4 15,2 19,0 21,0 0 0 13 7 N 1023,3 55 60 0,0
12.10.2019 09:00:00 17,2 11,5 14,4 21,1 8 5 17 9 W 1022,9 49 60 0,0
12.10.2019 08:00:00 15,1 11,1 13,3 21,2 11 6 19 11 W 1022,6 59 13 0,0
12.10.2019 07:00:00 14,8 11,2 13,2 21,3 11 6 18 10 W 1022,5 60 0 0,0
12.10.2019 06:00:00 15,0 11,4 13,6 21,4 12 6 20 11 W 1022,5 60 0 0,0
12.10.2019 05:00:00 15,4 11,6 13,7 21,5 10 5 18 10 W 1022,5 60 0 0,0
12.10.2019 04:00:00 15,7 11,9 14,1 21,5 10 5 18 10 W 1022,5 60 0 0,0
12.10.2019 03:00:00 15,9 12,1 14,4 21,6 10 5 19 10 WNW 1022,7 60 0 0,0
12.10.2019 02:00:00 16,1 12,6 14,5 21,7 10 5 19 10 WNW 1022,7 60 0 0,0
12.10.2019 01:00:00 16,7 13,0 15,1 21,8 10 6 19 10 W 1022,8 60 0 0,0
12.10.2019 00:00:00 17,1 13,6 15,3 21,8 9 5 16 9 W 1023,0 60 0 0,0
11.10.2019 23:00:00 17,7 14,4 16,0 21,8 8 5 16 9 W 1022,8 59 0 0,0
11.10.2019 22:00:00 18,5 15,2 16,1 21,9 6 3 11 6 WZW 1022,4 50 0 0,0
11.10.2019 21:00:00 19,1 15,8 16,8 21,9 5 3 9 5 W 1022,1 49 0 0,0
11.10.2019 20:00:00 20,2 16,6 18,4 21,8 4 2 7 4 W 1022,2 48 0 0,0
11.10.2019 19:00:00 20,8 16,4 18,7 21,8 2 1 7 4 Z 1021,9 40 0 0,0
11.10.2019 18:00:00 21,2 16,4 20,6 21,8 5 3 10 5 ZZO 1021,9 51 0 0,0
11.10.2019 17:00:00 21,5 16,2 21,9 21,6 7 4 11 6 ZO 1021,9 51 0 0,0
11.10.2019 16:00:00 21,5 16,0 21,4 21,5 6 3 13 7 ZZO 1022,0 56 1 0,0
11.10.2019 15:00:00 21,7 16,0 22,5 21,4 8 5 14 8 ZZO 1022,3 55 1 0,0
11.10.2019 14:00:00 21,7 16,6 22,9 21,3 9 5 22 12 ZZO 1022,5 48 17 0,0
11.10.2019 13:00:00 22,7 16,5 25,1 21,2 12 7 19 10 ZO 1022,7 20 60 0,0
11.10.2019 12:00:00 22,6 16,4 22,6 21,2 12 6 16 9 OZO 1022,8 20 60 0,0
11.10.2019 11:00:00 21,6 16,1 22,6 21,2 2 1 7 4 O 1022,8 47 5 0,0
11.10.2019 10:00:00 20,9 15,7 18,8 21,2 0 0 11 6 N 1022,8 19 12 0,0
11.10.2019 09:00:00 18,7 12,9 16,9 21,3 6 4 16 9 WNW 1022,2 60 0 0,0
11.10.2019 08:00:00 17,8 11,6 16,2 21,4 11 6 17 9 W 1021,3 60 0 0,0
11.10.2019 07:00:00 17,0 11,5 15,9 21,5 11 6 18 10 W 1021,0 60 0 0,0
11.10.2019 06:00:00 16,5 11,6 14,5 21,6 9 5 14 8 W 1021,0 60 0 0,0
11.10.2019 05:00:00 16,6 11,7 13,9 21,7 9 5 15 8 W 1020,5 60 0 0,0
11.10.2019 04:00:00 16,9 12,0 15,3 21,7 8 5 14 8 WNW 1020,1 60 0 0,0
11.10.2019 03:00:00 17,8 11,6 16,1 21,8 6 4 14 7 WNW 1020,1 60 0 0,0
11.10.2019 02:00:00 18,2 11,7 16,3 21,9 6 3 16 9 W 1020,1 60 0 0,0
11.10.2019 01:00:00 18,7 12,2 16,6 21,9 9 5 18 10 W 1019,6 60 0 0,0
11.10.2019 00:00:00 18,7 13,3 16,7 21,9 7 4 16 9 W 1019,3 60 0 0,0
10.10.2019 23:00:00 18,7 12,7 16,5 22,0 10 5 17 9 W 1019,0 60 0 0,0
10.10.2019 22:00:00 19,3 15,4 17,4 22,0 8 4 14 7 W 1018,6 49 0 0,0
10.10.2019 21:00:00 20,4 16,0 18,5 21,9 5 3 8 5 W 1018,2 43 0 0,0
10.10.2019 20:00:00 20,9 16,1 18,0 21,9 3 2 8 4 ZW 1017,4 44 0 0,0
10.10.2019 19:00:00 20,7 15,9 19,2 21,8 8 4 19 10 O 1016,7 44 0 0,0
10.10.2019 18:00:00 21,6 17,8 21,0 21,7 11 6 18 10 O 1016,1 45 0 0,0
10.10.2019 17:00:00 22,1 18,1 21,7 21,6 14 8 26 14 NNO 1015,7 51 44 0,0
10.10.2019 16:00:00 23,3 18,4 24,0 21,4 14 8 27 14 NNO 1015,5 20 60 0,0
10.10.2019 15:00:00 23,5 19,0 24,6 21,2 18 10 28 15 NO 1015,5 20 60 0,0
10.10.2019 14:00:00 23,6 18,5 25,2 21,0 10 6 20 11 O 1015,4 51 60 0,0
10.10.2019 13:00:00 23,8 19,1 25,6 20,9 12 6 21 12 O 1015,6 52 58 0,0
10.10.2019 12:00:00 23,3 17,3 25,8 20,8 6 4 18 10 OZO 1015,9 51 60 0,0
10.10.2019 11:00:00 22,9 16,7 23,3 20,8 13 7 19 11 NO 1015,7 60 60 0,0
10.10.2019 10:00:00 22,1 17,5 21,0 20,8 14 8 19 11 NNO 1015,6 60 60 0,0
10.10.2019 09:00:00 20,6 15,8 17,3 20,9 8 4 22 12 NNW 1014,9 52 60 0,0
10.10.2019 08:00:00 18,3 13,2 15,4 21,0 14 8 20 11 NNW 1014,2 59 18 0,0
10.10.2019 07:00:00 17,7 11,9 12,9 21,1 12 7 23 12 NNW 1014,2 60 0 0,0
10.10.2019 06:00:00 16,1 13,0 13,4 21,2 3 2 17 9 N 1014,1 60 0 0,0
10.10.2019 05:00:00 16,3 13,4 13,9 21,3 9 5 15 8 N 1014,0 60 0 0,0
10.10.2019 04:00:00 18,3 12,7 14,7 21,3 7 4 21 11 Z 1014,3 60 0 0,0
10.10.2019 03:00:00 17,9 13,6 14,2 21,4 6 3 15 8 ZZW 1014,5 60 0 0,0
10.10.2019 02:00:00 17,5 13,8 14,8 21,5 4 2 15 8 NNW 1014,9 60 0 0,0
10.10.2019 01:00:00 17,7 13,6 14,4 21,5 8 4 17 9 ZZO 1015,1 60 0 0,0
10.10.2019 00:00:00 17,7 13,2 14,9 21,6 5 3 12 6 WZW 1015,4 60 0 0,0
09.10.2019 23:00:00 18,7 13,5 16,5 21,6 6 4 14 8 WNW 1015,6 60 0 0,0
09.10.2019 22:00:00 18,3 14,6 16,1 21,6 8 5 17 9 W 1015,7 60 0 0,0
09.10.2019 21:00:00 18,8 14,9 16,7 21,6 7 4 13 7 W 1015,9 60 0 0,0

tt = temperatuur
td = dauwpunt
tt 5cm = temperatuur 5cm
tt -20cm = temperatuur -20cm
ff = windsnelheid
fx = windstoten
dd = windrichting
ppp = luchtdruk
vv = zicht
sd = Zonneschijnduur
rr = neerslag

Weerstations in de omgeving